• In Österreich
  • Länderverzeichnis
  • Für 7 Tage
  • Wassertemperatur
  • Satellitenkarten
  • Wetterkarte
  • News
  • Widgets
  • user-avatar
    Anmelden

    Stündliche Wetter Pernik

    Heute, 18 August, Samstag

    Zeit Temperatur Niederschläge Wind Luftdruck Luftfeuchtigkeit
    00:00 +19°C° 0,1 mm 1 m/S 692 mmHg 69%
    01:00 +18°C° 0,1 mm 1 m/S 692 mmHg 71%
    02:00 +18°C° 0,1 mm 1 m/S 692 mmHg 73%
    03:00 +18°C° 0 mm 1 m/S 692 mmHg 74%
    04:00 +18°C° 0 mm 1 m/S 692 mmHg 75%
    05:00 +16°C° 0 mm 1 m/S 692 mmHg 76%
    06:00 +19°C° 0 mm 1 m/S 692 mmHg 70%
    07:00 +21°C° 0 mm 1 m/S 693 mmHg 64%
    08:00 +23°C° 0 mm 1 m/S 693 mmHg 58%
    09:00 +25°C° 0 mm 2 m/S 694 mmHg 51%
    10:00 +27°C° 0 mm 2 m/S 694 mmHg 44%
    11:00 +28°C° 0 mm 3 m/S 694 mmHg 37%
    12:00 +29°C° 0 mm 3 m/S 694 mmHg 35%
    13:00 +29°C° 0 mm 3 m/S 694 mmHg 33%
    14:00 +30°C° 0 mm 4 m/S 694 mmHg 32%
    15:00 +30°C° 0 mm 4 m/S 693 mmHg 33%
    16:00 +29°C° 0 mm 4 m/S 693 mmHg 34%
    17:00 +29°C° 0 mm 3 m/S 693 mmHg 36%
    18:00 +26°C° 0 mm 3 m/S 693 mmHg 42%
    19:00 +24°C° 0 mm 2 m/S 693 mmHg 48%
    20:00 +21°C° 0 mm 2 m/S 692 mmHg 55%
    21:00 +21°C° 0 mm 1 m/S 693 mmHg 57%
    22:00 +20°C° 0 mm 1 m/S 693 mmHg 59%
    23:00 +19°C° 0 mm 1 m/S 693 mmHg 62%

    Morgen, 19 August, Sonntag

    Zeit Temperatur Niederschläge Wind Luftdruck Luftfeuchtigkeit
    00:00 +19°C° 0 mm 1 m/S 693 mmHg 63%
    01:00 +19°C° 0 mm 1 m/S 693 mmHg 64%
    02:00 +18°C° 0 mm 1 m/S 693 mmHg 65%
    03:00 +18°C° 0 mm 1 m/S 693 mmHg 66%
    04:00 +18°C° 0 mm 1 m/S 693 mmHg 67%
    05:00 +16°C° 0 mm 1 m/S 693 mmHg 68%
    06:00 +20°C° 0 mm 1 m/S 693 mmHg 62%
    07:00 +22°C° 0 mm 1 m/S 694 mmHg 56%
    08:00 +24°C° 0 mm 1 m/S 694 mmHg 50%
    09:00 +25°C° 0 mm 1 m/S 694 mmHg 44%
    10:00 +27°C° 0 mm 2 m/S 695 mmHg 38%
    11:00 +29°C° 0 mm 3 m/S 695 mmHg 32%
    12:00 +29°C° 0 mm 3 m/S 695 mmHg 31%
    13:00 +30°C° 0 mm 3 m/S 694 mmHg 29%
    14:00 +30°C° 0 mm 3 m/S 694 mmHg 28%
    15:00 +30°C° 0 mm 3 m/S 694 mmHg 29%
    16:00 +29°C° 0 mm 3 m/S 693 mmHg 31%
    17:00 +29°C° 0 mm 3 m/S 693 mmHg 32%
    18:00 +27°C° 0 mm 2 m/S 693 mmHg 38%
    19:00 +24°C° 0 mm 2 m/S 692 mmHg 43%
    20:00 +21°C° 0 mm 2 m/S 692 mmHg 49%
    21:00 +21°C° 0 mm 1 m/S 692 mmHg 51%
    22:00 +20°C° 0 mm 1 m/S 692 mmHg 54%
    23:00 +19°C° 0 mm 1 m/S 692 mmHg 56%

    übermorgen, 20 August, Montag

    Zeit Temperatur Niederschläge Wind Luftdruck Luftfeuchtigkeit
    00:00 +19°C° 0 mm 1 m/S 692 mmHg 58%
    01:00 +19°C° 0 mm 1 m/S 692 mmHg 59%
    02:00 +18°C° 0 mm 1 m/S 692 mmHg 60%
    03:00 +18°C° 0 mm 1 m/S 692 mmHg 62%
    04:00 +18°C° 0 mm 1 m/S 691 mmHg 63%
    05:00 +16°C° 0 mm 1 m/S 691 mmHg 64%
    06:00 +19°C° 0 mm 1 m/S 692 mmHg 59%
    07:00 +21°C° 0 mm 1 m/S 692 mmHg 54%
    08:00 +23°C° 0 mm 1 m/S 693 mmHg 50%
    09:00 +25°C° 0 mm 2 m/S 693 mmHg 45%
    10:00 +26°C° 0 mm 3 m/S 693 mmHg 41%
    11:00 +28°C° 0 mm 4 m/S 694 mmHg 36%
    12:00 +29°C° 0 mm 4 m/S 693 mmHg 34%
    13:00 +29°C° 0 mm 4 m/S 693 mmHg 32%
    14:00 +30°C° 0 mm 4 m/S 693 mmHg 29%
    15:00 +29°C° 0 mm 4 m/S 693 mmHg 30%
    16:00 +29°C° 0 mm 4 m/S 692 mmHg 30%
    17:00 +28°C° 0 mm 4 m/S 692 mmHg 30%
    18:00 +26°C° 0 mm 4 m/S 692 mmHg 35%
    19:00 +22°C° 0 mm 3 m/S 691 mmHg 40%
    20:00 +20°C° 0 mm 2 m/S 691 mmHg 45%
    21:00 +19°C° 0 mm 2 m/S 691 mmHg 47%
    22:00 +18°C° 0 mm 2 m/S 691 mmHg 48%
    23:00 +18°C° 0 mm 1 m/S 692 mmHg 50%

    21 August, Dienstag

    Zeit Temperatur Niederschläge Wind Luftdruck Luftfeuchtigkeit
    00:00 +18°C° 0 mm 1 m/S 692 mmHg 51%
    01:00 +16°C° 0 mm 1 m/S 692 mmHg 53%
    02:00 +16°C° 0 mm 1 m/S 691 mmHg 54%
    03:00 +15°C° 0 mm 1 m/S 691 mmHg 55%
    04:00 +15°C° 0 mm 1 m/S 691 mmHg 57%
    05:00 +15°C° 0 mm 1 m/S 691 mmHg 58%
    06:00 +18°C° 0 mm 1 m/S 692 mmHg 54%
    07:00 +20°C° 0 mm 1 m/S 692 mmHg 50%
    08:00 +22°C° 0 mm 1 m/S 693 mmHg 46%
    09:00 +23°C° 0 mm 2 m/S 693 mmHg 39%
    10:00 +25°C° 0 mm 3 m/S 694 mmHg 33%
    11:00 +27°C° 0 mm 4 m/S 694 mmHg 27%
    12:00 +28°C° 0 mm 4 m/S 694 mmHg 25%
    13:00 +29°C° 0 mm 4 m/S 694 mmHg 22%
    14:00 +29°C° 0 mm 4 m/S 693 mmHg 20%
    15:00 +29°C° 0 mm 4 m/S 693 mmHg 21%
    16:00 +29°C° 0 mm 4 m/S 693 mmHg 22%
    17:00 +28°C° 0 mm 4 m/S 693 mmHg 23%
    18:00 +25°C° 0 mm 3 m/S 692 mmHg 28%
    19:00 +23°C° 0 mm 2 m/S 692 mmHg 33%
    20:00 +19°C° 0 mm 2 m/S 692 mmHg 38%
    21:00 +18°C° 0 mm 2 m/S 692 mmHg 40%
    22:00 +18°C° 0 mm 1 m/S 692 mmHg 42%
    23:00 +16°C° 0 mm 1 m/S 692 mmHg 44%

    22 August, Mittwoch

    Zeit Temperatur Niederschläge Wind Luftdruck Luftfeuchtigkeit
    00:00 +16°C° 0 mm 1 m/S 692 mmHg 45%
    01:00 +15°C° 0 mm 1 m/S 692 mmHg 46%
    02:00 +15°C° 0 mm 1 m/S 692 mmHg 48%
    03:00 +14°C° 0 mm 1 m/S 692 mmHg 49%
    04:00 +14°C° 0 mm 1 m/S 692 mmHg 50%
    05:00 +14°C° 0 mm 1 m/S 692 mmHg 51%
    06:00 +16°C° 0 mm 1 m/S 693 mmHg 47%
    07:00 +19°C° 0 mm 1 m/S 693 mmHg 43%
    08:00 +22°C° 0 mm 1 m/S 694 mmHg 40%
    09:00 +24°C° 0 mm 1 m/S 694 mmHg 35%
    10:00 +26°C° 0 mm 2 m/S 694 mmHg 29%
    11:00 +28°C° 0 mm 3 m/S 694 mmHg 24%
    12:00 +29°C° 0 mm 3 m/S 694 mmHg 22%
    13:00 +30°C° 0 mm 3 m/S 694 mmHg 21%
    14:00 +30°C° 0 mm 3 m/S 693 mmHg 19%
    15:00 +30°C° 0 mm 3 m/S 693 mmHg 20%
    16:00 +30°C° 0 mm 3 m/S 693 mmHg 21%
    17:00 +29°C° 0 mm 3 m/S 693 mmHg 22%
    18:00 +26°C° 0 mm 3 m/S 692 mmHg 27%
    19:00 +23°C° 0 mm 2 m/S 692 mmHg 32%
    20:00 +19°C° 0 mm 2 m/S 691 mmHg 37%
    21:00 +18°C° 0 mm 2 m/S 691 mmHg 39%
    22:00 +19°C° 0 mm 1 m/S 692 mmHg 40%
    23:00 +18°C° 0 mm 1 m/S 692 mmHg 42%

    23 August, Donnerstag

    Zeit Temperatur Niederschläge Wind Luftdruck Luftfeuchtigkeit
    00:00 +16°C° 0 mm 1 m/S 691 mmHg 42%
    01:00 +16°C° 0 mm 1 m/S 691 mmHg 42%
    02:00 +15°C° 0 mm 1 m/S 691 mmHg 43%
    03:00 +15°C° 0 mm 1 m/S 691 mmHg 43%
    04:00 +15°C° 0 mm 1 m/S 691 mmHg 43%
    05:00 +14°C° 0 mm 1 m/S 691 mmHg 43%
    06:00 +18°C° 0 mm 1 m/S 691 mmHg 40%
    07:00 +20°C° 0 mm 1 m/S 692 mmHg 38%
    08:00 +22°C° 0 mm 1 m/S 692 mmHg 35%
    09:00 +24°C° 0 mm 1 m/S 692 mmHg 30%
    10:00 +26°C° 0 mm 2 m/S 693 mmHg 26%
    11:00 +28°C° 0 mm 3 m/S 693 mmHg 22%
    12:00 +29°C° 0 mm 3 m/S 693 mmHg 20%
    13:00 +29°C° 0 mm 3 m/S 692 mmHg 18%
    14:00 +30°C° 0 mm 3 m/S 692 mmHg 17%
    15:00 +30°C° 0 mm 3 m/S 692 mmHg 18%
    16:00 +29°C° 0 mm 3 m/S 691 mmHg 19%
    17:00 +29°C° 0 mm 3 m/S 691 mmHg 20%
    18:00 +26°C° 0 mm 3 m/S 691 mmHg 25%
    19:00 +23°C° 0 mm 2 m/S 690 mmHg 30%
    20:00 +19°C° 0 mm 2 m/S 690 mmHg 35%
    21:00 +19°C° 0 mm 1 m/S 690 mmHg 36%
    22:00 +18°C° 0 mm 1 m/S 690 mmHg 38%
    23:00 +18°C° 0 mm 1 m/S 690 mmHg 40%
    Mehr zeigen